Dewpoint
69 70 70 70 71 71 70 71 71 70 70 70 70 69 69 69 68 68 70 70 71 71 72 73 73 72 71 73 72 74 75 75 75 76 77 77 77 77 76 77 77 75 76 76 75 76 76 76 75 75 76 75 74 73 72 74 75 75 75 74 72 73 72 72 71 72 74 74 72 71 72 74 71 76 74 73 74 76 75 77 78 77 77 77 77
69 70 70 70 70 70 70 70 70 70 69 69 69 69 69 69 69 70 68 70 70 69 71 70 72 72 71 72 73 73 75 76 74 75 76 76 76 75 76 77 77 76 76 76 76 75 76 77 75 75 76 76 74 72 72 70 71 71 74 73 73 73 74 72 72 72 72 74 74 75 73 74 73 75 75 74 74 76 76 75 74 76 77 77 77
67 70 70 70 70 70 70 70 70 69 68 68 67 67 68 68 69 69 67 67 70 69 69 69 72 73 72 72 74 74 75 75 74 75 75 76 76 74 74 75 76 75 75 76 75 76 75 76 74 74 75 75 75 73 72 73 71 72 72 72 73 73 74 74 73 72 72 73 75 72 73 75 74 74 75 75 76 77 78 74 73 74 77 76 76
66 69 69 69 69 70 70 69 68 68 67 67 67 67 66 67 69 68 67 66 67 70 70 70 72 73 72 73 74 73 74 74 74 74 75 75 75 76 76 76 75 75 74 74 74 75 74 75 73 73 74 75 75 75 75 74 74 75 74 74 75 74 75 75 75 74 73 72 74 74 74 74 74 75 75 76 75 76 75 75 74 75 76 75 75
66 67 67 67 67 69 69 68 68 68 67 66 66 66 66 66 67 67 66 66 67 68 70 71 72 73 70 71 72 73 73 73 74 73 74 74 75 74 75 76 76 75 75 75 75 75 75 74 73 74 75 74 74 74 73 75 75 74 74 74 75 74 75 76 76 76 75 74 74 76 77 76 76 76 76 75 75 76 77 77 74 75 77 75 72
65 66 66 66 68 69 69 68 68 68 67 66 66 66 66 66 66 67 66 66 67 67 69 70 70 72 71 71 72 73 74 74 75 74 72 73 74 74 74 75 74 75 75 74 75 75 75 75 74 74 74 73 73 73 75 75 75 74 74 75 75 75 76 76 76 76 76 75 75 74 76 74 75 76 77 76 75 74 75 75 76 76 76 75 74
66 66 66 66 68 69 68 68 68 68 68 67 66 66 65 65 65 66 67 66 66 66 66 69 70 71 72 71 71 72 73 73 75 75 74 74 74 75 73 74 74 74 74 73 73 73 74 74 75 75 75 74 73 73 74 75 73 74 75 75 75 75 74 75 75 75 75 74 74 75 74 74 76 74 76 78 77 76 75 74 74 75 77 77 76
66 66 66 67 69 70 69 68 68 69 69 70 69 67 66 66 66 66 67 67 66 65 65 66 68 69 70 71 71 73 74 73 74 75 75 74 74 74 74 73 72 73 73 74 73 72 73 73 72 74 75 75 75 75 75 74 75 74 74 75 75 75 74 73 74 74 74 73 73 72 73 74 75 76 76 77 76 76 76 74 73 74 74 77 77
66 66 67 68 69 71 70 69 69 69 69 70 70 69 68 68 67 67 68 67 65 65 66 65 66 68 69 70 71 71 71 72 72 73 74 74 74 72 73 73 73 73 73 72 73 74 73 72 72 72 75 76 76 76 75 76 75 75 76 76 76 75 75 74 74 74 74 74 73 74 74 74 74 75 73 74 74 73 76 75 75 75 75 75 76
67 66 66 69 70 70 71 71 71 70 70 71 71 70 69 69 68 67 67 67 67 68 68 67 66 67 68 70 70 70 70 71 71 68 69 73 74 71 72 74 74 73 74 74 72 73 72 72 71 75 75 75 75 74 72 72 73 73 75 77 76 76 75 75 74 74 74 73 72 72 71 71 70 74 73 73 75 76 76 76 75 74 75 75 75
67 67 67 69 70 70 71 71 71 71 72 71 72 71 70 70 70 70 69 68 68 69 68 67 66 66 66 67 68 68 68 68 67 64 65 66 71 73 73 74 75 74 73 74 74 72 72 73 73 74 76 75 75 72 72 71 71 71 72 74 76 76 75 74 74 74 73 72 72 73 71 72 72 73 73 72 73 74 74 76 74 74 74 72 71
66 68 68 70 70 71 70 71 71 71 72 72 72 72 71 71 71 71 70 69 70 68 68 68 68 67 66 66 66 67 68 66 63 63 63 64 67 71 71 72 71 73 73 72 73 73 72 72 73 72 74 75 76 77 74 72 70 70 70 70 72 73 73 75 75 74 74 73 73 73 72 72 74 75 73 72 74 75 76 76 76 74 74 73 73
67 68 68 69 71 71 71 71 71 71 72 72 72 72 72 72 71 71 69 69 69 70 70 68 69 68 67 68 67 66 67 65 62 62 62 62 63 67 69 70 70 71 72 73 72 73 74 73 72 73 71 75 75 75 77 77 72 69 70 70 71 70 68 68 70 75 74 75 74 73 74 74 75 75 75 76 77 75 75 75 75 75 75 74 74
68 68 69 70 71 71 72 71 71 72 72 73 73 72 72 72 71 70 70 71 71 70 69 70 69 70 69 69 69 68 68 65 61 61 61 61 62 64 70 69 70 71 71 72 72 73 74 74 74 74 74 76 76 76 76 76 77 76 75 75 75 74 71 68 67 68 71 74 74 74 75 77 75 76 77 77 76 75 74 73 75 75 75 74 75
71 69 69 70 70 71 71 72 72 72 73 73 73 73 72 72 72 71 69 70 71 71 69 69 70 70 69 68 69 68 67 63 60 60 59 60 61 63 70 70 70 71 72 72 74 73 74 74 75 74 75 76 76 76 76 76 77 76 76 75 74 74 75 74 73 75 75 74 75 75 76 77 77 77 77 77 77 76 76 75 75 76 75 75 75
72 72 71 71 70 71 71 71 72 72 72 73 73 72 73 73 73 72 71 69 70 70 70 70 69 69 69 69 68 68 67 61 60 59 59 59 60 67 70 72 72 71 72 73 74 75 74 75 75 75 75 76 75 70 73 76 75 75 75 75 74 74 73 74 70 72 76 76 76 75 75 77 73 77 77 75 76 78 77 75 75 75 74 73 72
69 73 73 71 71 71 71 70 72 72 72 72 72 72 73 73 73 73 72 70 69 69 70 70 71 70 69 70 69 69 68 64 59 58 58 58 60 69 71 71 72 72 72 73 74 74 75 75 75 74 74 75 72 66 67 72 74 74 74 74 73 72 72 73 69 66 66 66 66 67 66 66 66 65 64 65 74 73 75 74 73 73 73 72 72
66 69 71 73 74 73 72 72 72 73 73 72 72 72 72 73 73 74 72 70 69 69 70 70 71 71 70 69 69 69 69 66 58 57 57 57 63 70 71 71 72 72 72 73 74 75 75 75 76 75 74 75 68 64 64 71 74 74 74 73 73 73 73 72 74 76 64 63 64 64 64 65 65 64 64 63 63 69 74 73 72 70 73 73 71
65 67 68 70 72 74 73 74 73 72 72 72 72 72 73 73 73 74 73 72 71 71 71 71 70 71 69 69 69 69 69 67 58 57 56 56 62 71 72 72 72 72 72 72 74 74 75 74 74 73 74 73 66 63 62 69 74 74 74 73 72 72 72 74 75 76 77 75 75 74 72 69 71 72 73 67 65 70 73 74 72 72 72 72 72
63 65 66 68 70 71 73 73 74 73 72 73 73 73 74 73 73 73 72 72 72 72 71 71 71 70 70 70 69 69 70 70 70 57 56 55 57 70 72 72 71 72 72 72 72 74 74 74 73 66 65 65 64 61 60 62 72 74 74 73 73 73 73 75 76 76 76 76 76 76 76 76 76 75 75 74 70 71 72 73 74 74 74 74 72
64 64 65 66 67 68 71 73 73 73 73 73 73 73 73 72 72 73 72 71 72 72 72 72 71 71 71 71 71 70 70 70 73 57 55 55 55 61 71 72 72 72 72 72 72 72 73 73 73 68 62 61 61 60 58 58 64 74 75 74 74 74 73 75 76 75 75 75 76 75 75 76 75 74 73 74 73 72 71 72 74 75 75 74 72
63 64 65 65 66 68 69 71 73 72 74 74 74 74 74 74 73 73 72 72 73 73 73 73 72 71 72 72 72 72 71 68 71 60 56 54 54 55 69 71 72 72 72 72 72 72 72 73 74 69 61 60 60 59 56 57 59 72 75 65 65 65 75 75 75 75 75 74 73 72 73 73 73 72 71 71 72 74 73 73 74 76 76 75 74
61 62 64 66 68 69 70 71 70 71 73 73 74 73 74 74 75 75 74 74 74 74 74 73 72 72 72 72 72 73 74 73 64 69 56 54 54 54 59 66 64 73 71 71 72 71 73 73 74 69 61 58 57 57 57 56 58 67 63 62 62 63 68 72 73 73 73 73 72 72 72 72 73 73 73 73 72 74 74 75 76 76 76 76 76
61 61 62 65 67 68 69 70 71 72 72 73 74 74 74 74 74 74 74 73 72 72 72 72 72 71 71 72 73 73 75 74 68 63 65 54 54 53 54 57 62 69 71 70 71 71 72 73 73 64 59 55 54 56 57 57 64 59 58 60 61 64 71 72 72 73 73 71 72 72 72 72 73 73 73 74 74 76 77 77 77 77 77 77 77
61 61 61 62 64 67 68 69 71 71 72 72 72 73 74 73 73 74 74 73 73 72 72 72 72 72 72 72 72 72 73 74 73 68 61 57 54 53 54 55 57 59 70 71 72 71 67 64 63 61 59 56 55 56 57 56 56 58 58 58 64 69 71 71 72 73 71 71 71 71 72 73 74 75 76 77 78 77 77 77 76 77 77 77 76
60 61 61 62 63 64 65 66 68 71 72 73 73 73 73 74 73 73 73 72 73 73 73 72 72 73 72 72 72 72 73 74 74 74 66 62 58 54 54 54 56 57 62 68 65 64 62 61 60 60 60 61 66 68 69 69 58 57 58 61 67 69 70 71 72 72 72 71 71 72 72 73 74 76 77 78 77 75 75 75 75 75 74 75 74
60 60 61 61 62 63 65 65 66 67 69 71 73 73 74 74 74 73 73 73 72 72 73 72 72 72 72 72 72 72 73 73 73 73 74 71 69 65 59 59 55 56 61 66 66 68 69 67 68 64 64 64 64 66 66 67 68 64 64 65 68 69 71 71 72 73 73 73 72 73 73 74 75 77 76 76 75 75 75 75 74 73 74 74 73
59 59 59 60 62 63 64 65 65 65 66 68 69 71 72 73 74 74 74 73 73 72 72 72 72 72 72 72 72 72 72 72 73 73 72 73 72 70 66 64 63 63 64 66 68 69 69 67 66 70 70 71 70 69 70 71 71 70 69 68 68 69 70 71 72 74 75 74 74 74 74 75 75 75 75 74 74 74 75 74 73 73 73 74 72
59 59 59 60 61 62 62 63 63 64 65 67 68 70 71 71 73 74 75 74 74 73 72 72 73 72 72 73 73 72 73 73 73 66 73 65 71 71 70 67 66 66 63 60 68 70 71 70 71 71 71 70 69 70 70 70 71 71 72 71 70 71 71 71 72 72 73 74 73 74 74 74 75 75 74 74 74 75 75 74 75 74 74 74 72
58 59 59 60 60 60 60 61 62 64 64 65 66 67 67 61 66 71 73 69 65 64 64 73 73 73 72 73 74 73 72 73 66 60 59 59 58 60 61 61 59 64 61 58 65 69 70 70 70 70 70 70 69 69 69 70 71 71 71 68 70 70 71 71 72 72 74 74 74 74 74 74 75 75 74 73 75 74 74 70 73 74 72 71 71
57 57 58 59 59 59 59 60 62 63 63 64 64 65 66 68 58 56 58 64 63 58 55 57 59 61 73 74 72 65 63 63 62 58 55 55 55 55 55 55 54 55 56 64 65 67 69 69 70 70 70 70 70 69 70 70 70 71 71 71 71 71 70 70 71 71 71 72 73 74 74 75 73 73 73 72 73 72 72 71 72 71 71 71 70
57 57 57 58 59 60 60 60 61 61 62 63 63 64 65 66 67 62 60 57 55 55 53 53 54 56 57 63 71 76 65 57 57 55 52 53 53 53 52 52 51 52 52 56 68 68 68 69 70 70 70 69 69 70 69 70 71 71 71 70 71 71 71 71 71 72 72 72 73 74 74 74 73 73 73 71 69 70 69 68 68 69 69 70 69
57 57 57 58 59 60 60 60 60 60 60 61 62 64 64 65 66 67 68 61 54 50 53 53 51 51 53 52 51 58 63 64 56 53 51 51 51 51 52 51 50 48 51 63 68 69 69 69 70 71 70 70 70 70 71 71 71 71 71 71 71 72 73 74 74 73 72 73 73 74 74 73 72 71 71 69 68 68 68 69 69 68 68 67 67
56 57 58 58 59 59 59 59 58 58 59 60 61 62 64 66 66 66 66 67 69 66 53 48 49 50 48 49 51 51 50 50 51 51 50 50 50 50 50 56 47 47 56 68 68 69 70 70 69 70 70 70 70 71 71 72 72 72 72 72 72 73 74 76 75 73 72 73 73 72 73 72 71 71 70 69 69 69 68 68 68 68 67 67 67
57 58 59 59 58 57 57 57 57 58 59 59 59 61 62 64 65 66 67 67 68 68 69 73 58 48 61 58 50 48 49 50 50 49 49 48 49 48 51 64 63 61 61 65 69 69 69 70 70 70 70 70 71 71 72 72 72 72 72 73 73 72 74 75 73 73 72 72 72 72 73 71 71 70 69 68 68 68 67 68 68 68 67 67 67
55 56 56 56 56 56 57 57 57 57 58 58 59 60 61 62 64 66 67 68 68 68 69 71 72 63 50 51 53 51 48 47 49 49 48 48 47 50 66 67 67 66 65 65 66 68 69 70 70 71 71 71 72 71 72 72 72 72 73 72 72 73 73 74 73 73 73 73 72 72 70 71 71 70 70 69 68 67 67 68 68 67 67 67 67
54 55 55 55 56 56 56 56 57 57 56 57 58 59 60 61 63 64 66 67 68 68 69 69 70 71 64 65 59 51 48 48 47 47 48 48 45 59 68 69 69 69 68 67 66 67 68 69 70 71 71 71 71 72 72 72 72 73 70 74 74 74 74 74 73 72 72 71 72 72 71 71 70 70 70 68 67 68 68 68 68 66 66 65 64
53 54 54 55 55 55 55 56 56 56 57 58 58 58 59 60 61 62 64 65 66 66 67 68 67 69 69 71 69 67 62 47 46 46 44 44 53 62 66 69 71 72 70 69 69 68 69 70 71 71 71 72 72 72 72 72 73 73 73 75 75 75 71 74 72 73 72 72 71 71 71 71 71 70 68 68 68 67 68 68 68 67 65 64 64
54 53 54 54 54 55 55 56 56 56 57 57 56 57 57 57 58 60 62 63 65 66 67 68 69 69 69 71 71 67 64 66 66 67 64 63 62 63 66 69 71 71 71 71 70 69 69 70 70 72 72 72 72 73 73 72 73 73 74 74 74 74 73 72 72 72 71 71 71 71 71 71 71 71 70 69 68 69 68 67 68 67 66 64 64
53 53 53 54 55 55 55 55 56 56 56 55 55 56 56 56 57 58 58 59 60 63 64 66 67 68 69 71 70 68 69 70 70 70 70 67 66 66 66 67 69 70 70 71 71 71 70 70 71 71 72 73 73 73 74 74 74 74 75 74 72 72 73 73 73 71 71 71 71 71 70 70 70 70 69 69 69 69 69 68 67 67 67 66 65
52 52 54 54 54 54 55 55 55 55 55 54 54 55 55 56 56 57 56 57 58 59 61 63 65 67 68 67 61 61 70 70 71 71 72 71 69 67 67 67 68 69 70 70 71 71 71 71 71 71 72 73 73 73 74 74 73 73 72 71 72 71 71 72 72 72 71 71 71 70 69 69 69 68 68 68 65 67 69 68 67 66 66 65 65
52 52 53 53 54 54 54 54 54 54 53 54 54 54 54 55 55 55 56 56 57 58 59 60 62 65 64 58 55 51 67 71 71 71 71 71 70 69 69 68 68 69 70 69 69 70 72 72 72 72 72 72 72 72 73 72 72 71 71 71 71 71 71 71 72 72 71 71 70 70 69 69 68 68 68 64 68 67 68 67 67 66 65 65 65
52 52 53 54 53 53 53 52 53 53 52 52 53 53 54 54 53 54 54 55 55 56 57 58 60 61 63 58 59 53 65 70 69 70 70 70 70 70 70 70 69 69 69 69 70 70 70 71 71 72 72 72 72 72 73 72 72 71 71 71 71 72 72 73 72 71 71 70 70 69 69 68 68 68 68 67 67 67 67 66 65 66 65 65 64
52 52 52 53 52 52 52 52 51 52 52 52 52 52 53 52 52 52 52 52 53 53 53 53 54 55 56 55 54 58 61 62 63 63 62 61 60 56 54 54 55 55 56 58 60 60 62 64 66 64 59 60 61 62 67 71 73 73 72 72 71 70 72 71 70 70 70 70 70 69 69 68 67 67 66 66 66 66 65 65 65 64 64 64 64
50 51 51 51 51 51 51 51 51 51 51 51 51 51 51 51 50 50 50 50 51 50 50 50 50 50 51 51 51 51 50 51 51 51 51 50 49 49 49 49 49 50 50 51 51 52 53 55 55 55 54 54 55 57 58 59 61 66 70 72 72 68 69 69 69 70 69 69 67 66 66 66 66 66 65 65 65 64 63 64 63 61 61 62 62
49 50 50 50 50 51 50 50 51 50 50 50 49 49 49 49 49 49 49 49 49 48 48 48 48 48 48 48 48 48 48 47 47 47 47 47 47 47 47 47 47 48 48 48 49 50 51 51 52 53 53 54 53 53 53 53 54 55 57 60 64 66 66 67 67 67 67 66 65 64 64 64 65 65 64 64 63 62 62 62 63 61 62 61 61
49 49 50 50 49 49 50 49 49 49 48 49 48 48 48 47 47 48 48 47 47 47 46 46 46 46 46 46 46 46 46 46 45 44 45 45 46 46 46 46 47 46 46 47 47 48 48 49 50 50 50 51 52 53 52 52 53 53 54 55 56 57 59 62 65 65 65 64 63 63 62 62 61 61 61 62 62 61 60 59 58 59 58 57 56
48 49 48 49 48 48 48 48 48 48 47 47 48 47 47 47 46 46 45 45 45 45 45 45 45 45 45 45 45 45 44 44 44 44 44 43 44 44 44 45 44 45 45 45 46 46 46 46 47 47 48 49 49 50 50 50 50 51 51 51 52 53 54 54 60 61 62 62 61 60 60 59 59 60 60 61 59 57 56 55 55 55 54 53 51
48 48 48 47 48 47 47 47 47 47 46 47 46 46 46 45 45 44 44 44 44 44 44 44 43 43 44 44 43 43 43 43 42 42 42 42 42 41 42 42 42 42 42 42 43 44 45 45 45 46 46 46 46 47 48 48 49 49 50 51 48 43 42 46 51 56 53 59 59 57 57 56 56 56 56 57 56 56 55 55 55 55 55 54 52
48 47 47 47 46 47 47 47 46 46 46 45 45 45 45 44 44 44 43 42 42 43 43 43 42 42 42 42 42 41 41 41 41 40 40 40 40 40 40 40 40 40 40 41 41 42 44 44 44 44 45 45 45 45 45 45 45 46 46 46 40 39 40 41 44 47 54 56 56 56 56 55 55 55 56 57 56 56 54 54 54 54 54 54 53
48 47 47 47 46 46 46 45 45 45 45 45 45 44 44 43 43 43 42 42 41 41 41 41 41 41 42 41 42 41 40 40 40 40 40 40 40 40 40 41 40 40 40 40 41 41 42 42 43 44 45 45 45 44 44 44 43 43 40 39 38 38 40 44 48 42 45 49 55 56 55 54 54 53 53 52 52 51 51 50 50 49 48 47 48